Location: Limerick
(52.6650°N, 8.6230°W)
Time: 06:18:15
(UTC+00:00)

ISS - Pass Details

Date: 07 December 2019
Orbit: 411 x 421 km, 51.6° (Epoch: 15 December)

Event Time Altitude Azimuth Distance (km) Brightness Sun altitude
Rises 18:08:56 0° 281° (W) 2,360 1.2 -15.3°
Reaches altitude 10° 18:11:07 10° 272° (W) 1,496 0.2 -15.7°
Maximum altitude 18:14:14 36° 205° (SSW) 679 -2.4 -16.1°
Enters shadow 18:16:40 15° 142° (SE) 1,245 -1.6 -16.5°
